Location: Aranbee
(34.0885°N, 118.2342°W)
Time: 10:28:49
(UTC+00:00)

Courier 1B Rocket - Pass Details

Date: 26 November 2020
Orbit: 920 x 1202 km, 28.2° (Epoch: 19 January)

Event Time Altitude Azimuth Distance (km) Brightness Sun altitude
Exits shadow 12:03:37 - 197° (SSW) 3,457 7.7 -31.2°
Reaches altitude 10° 12:05:10 10° 189° (S) 3,122 7.6 -30.9°
Maximum altitude 12:09:53 17° 151° (SSE) 2,613 7.5 -29.9°
Drops below altitude 10° 12:14:34 10° 114° (ESE) 3,101 8.5 -29.0°
Sets 12:18:30 0° 95° (E) 4,034 9.5 -28.2°
